WetterOnline ( https://www.wetteronline.de )

Wetter aktuell Wunsiedel

Aktuelles Wetter: Wunsiedel-Schönbrunn (622m)

6-stündlich | Neueste Meldungen
Ortszeit Temperatur Wetter
Di, 11.05. 8:00 14.8° C wolkig
Di, 11.05. 2:00 14.8° C bedeckt
Mo, 10.05. 20:00 21.0° C bedeckt
Mo, 10.05. 14:00 23.9° C leicht bewölkt
Mo, 10.05. 8:00 11.3° C wolkig
Mo, 10.05. 2:00 13.8° C wolkig
So, 09.05. 20:00 21.3° C wolkig
So, 09.05. 14:00 22.2° C wolkenlos
Ortszeit Temperatur Wetter
Di, 11.05. 12:00 22.1° C leicht bewölkt
Di, 11.05. 11:40 21.3° C leicht bewölkt
Di, 11.05. 11:30 20.5° C wolkig
Di, 11.05. 11:20 20.5° C wolkig
Di, 11.05. 11:10 20.5° C wolkig
Di, 11.05. 11:00 20.3° C leicht bewölkt
Di, 11.05. 10:50 20.3° C leicht bewölkt
Di, 11.05. 10:30 18.4° C wolkenlos
Di, 11.05. 10:00 17.5° C wolkenlos
Di, 11.05. 9:30 16.4° C wolkenlos
Di, 11.05. 9:00 15.9° C wolkenlos
Di, 11.05. 8:30 14.6° C leicht bewölkt
Ortszeit Relative Feuchte Sichtweite
Di, 11.05. 8:00 71% 35 km
Di, 11.05. 2:00 77% 65 km
Mo, 10.05. 20:00 51% 55 km
Mo, 10.05. 14:00 36% 50 km
Mo, 10.05. 8:00 76% 60 km
Mo, 10.05. 2:00 65% >70 km
So, 09.05. 20:00 40% >70 km
So, 09.05. 14:00 42% 60 km
Ortszeit Relative Feuchte Sichtweite
Di, 11.05. 12:00 52% 30 km
Di, 11.05. 11:40 50% -
Di, 11.05. 11:30 57% 50 km
Di, 11.05. 11:20 57% -
Di, 11.05. 11:10 58% -
Di, 11.05. 11:00 59% 35 km
Di, 11.05. 10:50 59% -
Di, 11.05. 10:30 64% 45 km
Di, 11.05. 10:00 67% 50 km
Di, 11.05. 9:30 69% 45 km
Di, 11.05. 9:00 70% 50 km
Di, 11.05. 8:30 74% 65 km
Ortszeit Niederschlagsmenge Niederschlagsart
Di, 11.05. 8:00 0.0 l/m2 in 12 Std. -
Di, 11.05. 2:00 0.0 l/m2 in 6 Std. -
Mo, 10.05. 20:00 0.0 l/m2 in 12 Std. -
Mo, 10.05. 14:00 0.0 l/m2 in 6 Std. -
Mo, 10.05. 8:00 0.0 l/m2 in 12 Std. -
Mo, 10.05. 2:00 0.0 l/m2 in 6 Std. -
So, 09.05. 20:00 0.0 l/m2 in 12 Std. -
So, 09.05. 14:00 0.0 l/m2 in 6 Std. -
Ortszeit Niederschlagsmenge Niederschlagsart
Di, 11.05. 12:00 0.0 l/m2 in 1 Std. -
Di, 11.05. 11:40 keine Meldung -
Di, 11.05. 11:30 0.0 l/m2 in 1 Std. -
Di, 11.05. 11:20 keine Meldung -
Di, 11.05. 11:10 keine Meldung -
Di, 11.05. 11:00 0.0 l/m2 in 1 Std. -
Di, 11.05. 10:50 keine Meldung -
Di, 11.05. 10:30 0.0 l/m2 in 1 Std. -
Di, 11.05. 10:00 0.0 l/m2 in 1 Std. -
Di, 11.05. 9:30 0.0 l/m2 in 1 Std. -
Di, 11.05. 9:00 0.0 l/m2 in 1 Std. -
Di, 11.05. 8:30 0.0 l/m2 in 1 Std. -
Ortszeit Stärke Spitze Richtung
km/h Bft. km/h Grad Sektor
Di, 11.05. 8:00 4 1 14 360° N
Di, 11.05. 2:00 7 2 32 30° NO
Mo, 10.05. 20:00 6 1 39 40° NO
Mo, 10.05. 14:00 18 3 36 200° S
Mo, 10.05. 8:00 4 1 14 50° NO
Mo, 10.05. 2:00 11 2 22 100° O
So, 09.05. 20:00 9 2 46 190° S
So, 09.05. 14:00 14 3 40 190° S
Ortszeit Stärke Spitze Richtung
km/h Bft. km/h Grad Sektor
Di, 11.05. 12:00 7 2 18 90° O
Di, 11.05. 11:40 11 2 - 110° O
Di, 11.05. 11:30 7 2 14 20° N
Di, 11.05. 11:20 7 2 - 20° N
Di, 11.05. 11:10 6 1 - 40° NO
Di, 11.05. 11:00 7 2 14 100° O
Di, 11.05. 10:50 7 2 - 100° O
Di, 11.05. 10:30 9 2 17 50° NO
Di, 11.05. 10:00 7 2 18 60° NO
Di, 11.05. 9:30 11 2 18 50° NO
Di, 11.05. 9:00 6 1 9 20° N
Di, 11.05. 8:30 6 1 7 20° N
Ortszeit Untergrenze Bedeckung Gattung
total tief tief mittel hoch
Di, 11.05. 8:00 7800 m 8/8 0/8 - - -
Di, 11.05. 2:00 3300 m 8/8 8/8 - - -
Mo, 10.05. 20:00 3900 m 8/8 8/8 - - -
Mo, 10.05. 14:00 8400 m 5/8 0/8 - - -
Mo, 10.05. 8:00 6900 m 6/8 6/8 - - -
Mo, 10.05. 2:00 8100 m 7/8 0/8 - - -
So, 09.05. 20:00 9000 m 8/8 0/8 - - -
So, 09.05. 14:00 9000 m 0/8 0/8 - - -
Ortszeit Bedeckungsgrad in Achtel und Wolkenuntergrenze
Di, 11.05. 12:00 6(7800m)
Di, 11.05. 11:40 5(8100m)
Di, 11.05. 11:30 6(8400m) 7(9000m)
Di, 11.05. 11:20 6(8400m) 7(9000m)
Di, 11.05. 11:10 1(6900m) 7(8700m)
Di, 11.05. 11:00 2(6900m) 5(9000m)
Di, 11.05. 10:50 2(6900m)
Di, 11.05. 10:30 keine Wolken
Di, 11.05. 10:00 keine Wolken
Di, 11.05. 9:30 keine Wolken
Di, 11.05. 9:00 keine Wolken
Di, 11.05. 8:30 5(8100m) 5(8700m)
Ortszeit Luftdruck NN (hPa) Tendenz (hPa in 3 Std.)
Di, 11.05. 8:00 1006 - 0,1
Di, 11.05. 2:00 1007 - 1,8
Mo, 10.05. 20:00 1007 + 0,1
Mo, 10.05. 14:00 1006 + 0,2
Mo, 10.05. 8:00 1009 + 0,4
Mo, 10.05. 2:00 1008 - 0,5
So, 09.05. 20:00 1007 - 1,2
So, 09.05. 14:00 1010 - 1,4
Ortszeit Luftdruck NN (hPa) Tendenz (hPa in 3 Std.)
Di, 11.05. 12:00 1003 - 1,3
Di, 11.05. 11:40 1003 keine Meldung
Di, 11.05. 11:30 1003 - 1,0
Di, 11.05. 11:20 1003 keine Meldung
Di, 11.05. 11:10 1003 keine Meldung
Di, 11.05. 11:00 1003 - 0,7
Di, 11.05. 10:50 1003 keine Meldung
Di, 11.05. 10:30 1004 - 0,4
Di, 11.05. 10:00 1005 - 0,3
Di, 11.05. 9:30 1005 - 0,2
Di, 11.05. 9:00 1006 + 0,2
Di, 11.05. 8:30 1006 + 0,3
Ortszeit Schneehöhe (cm)
Di, 11.05. 8:00 0
Di, 11.05. 2:00 0
Mo, 10.05. 20:00 0
Mo, 10.05. 14:00 0
Mo, 10.05. 8:00 0
Mo, 10.05. 2:00 0
So, 09.05. 20:00 0
So, 09.05. 14:00 0
Ortszeit Schneehöhe (cm)
Di, 11.05. 12:00 0
Di, 11.05. 11:40 0
Di, 11.05. 11:30 0
Di, 11.05. 11:20 0
Di, 11.05. 11:10 0
Di, 11.05. 11:00 0
Di, 11.05. 10:50 0
Di, 11.05. 10:30 0
Di, 11.05. 10:00 0
Di, 11.05. 9:30 0
Di, 11.05. 9:00 0
Di, 11.05. 8:30 0
Link zu dieser Seite / Seite empfehlen

Das Wetter in ...